This is the latest recevied weather packets stored in our database for station/object KI4HRG. If no packets are shown the sender has not sent any weather packets the latest 10 day(s).
| Time | Temp. | Humidity | Pressure | Rain* | Wind** | Luminosity | Snow |
|---|---|---|---|---|---|---|---|
| 1788537191 | 33.89° C | 59% | 1017.1 hPa | 0 mm | - | 786 W/m² | - |
| 1788536889 | 33.89° C | 59% | 1017.3 hPa | 0 mm | - | 742 W/m² | - |
| 1788536584 | 33.33° C | 60% | 1017.3 hPa | 0 mm | - | 751 W/m² | - |
| 1788536279 | 33.33° C | 63% | 1017.2 hPa | 0 mm | - | 747 W/m² | - |
| 1788535975 | 33.33° C | 62% | 1017.1 hPa | 0 mm | - | 734 W/m² | - |
| 1788535671 | 33.33° C | 63% | 1017.2 hPa | 0 mm | - | 730 W/m² | - |
| 1788535366 | 33.33° C | 62% | 1017.1 hPa | 0 mm | - | 751 W/m² | - |
| 1788535061 | 32.22° C | 65% | 1017.2 hPa | 0 mm | - | 590 W/m² | - |
| 1788534760 | 31.67° C | 67% | 1017.1 hPa | 0 mm | - | 611 W/m² | - |
| 1788534456 | 31.67° C | 68% | 1017 hPa | 0 mm | - | 649 W/m² | - |
| 1788534151 | 31.67° C | 68% | 1017.2 hPa | 0 mm | - | 545 W/m² | - |
| 1788533849 | 31.67° C | 68% | 1017.1 hPa | 0 mm | - | 422 W/m² | - |
| 1788533545 | 31.67° C | 70% | 1016.9 hPa | 0 mm | - | 537 W/m² | - |
| 1788533240 | 31.11° C | 70% | 1016.8 hPa | 0 mm | - | 528 W/m² | - |
| 1788532936 | 31.11° C | 70% | 1017.1 hPa | 0 mm | - | 382 W/m² | - |
| 1788532631 | 31.11° C | 70% | 1017 hPa | 0 mm | - | 527 W/m² | - |
| 1788532328 | 31.67° C | 69% | 1016.9 hPa | 0 mm | - | 484 W/m² | - |
| 1788532024 | 31.11° C | 70% | 1016.7 hPa | 0 mm | - | 462 W/m² | - |
| 1788531720 | 31.11° C | 69% | 1016.9 hPa | 0 mm | - | 471 W/m² | - |
| 1788531420 | 31.67° C | 70% | 1017 hPa | 0 mm | - | 437 W/m² | - |
| 1788531115 | 30.56° C | 71% | 1017 hPa | 0 mm | - | 433 W/m² | - |
| 1788530810 | 30.56° C | 72% | 1017.1 hPa | 0 mm | - | 277 W/m² | - |
| 1788530505 | 30.56° C | 72% | 1017 hPa | 0 mm | - | 243 W/m² | - |
| 1788530204 | 30.56° C | 72% | 1016.9 hPa | 0 mm | - | 351 W/m² | - |
| 1788529900 | 30° C | 71% | 1016.8 hPa | 0 mm | - | 327 W/m² | - |
* Rain latest hour (hover to see other rain measurements)
** Current wind speed in m/s (hover to see current wind gust speed)